Find Starlink 11413

NORAD ID: 62593 Int'l Des: 2025-008 Owner: SPXS Country: US Constellation: starlink operational
LEOCIRCULAR

Live Position

Loading 3D Globe...

About Starlink 11413

Description loading...

Upcoming Passes

Passes for default location (London). Set your location on the main map for personalized predictions.

Altitude History

Loading altitude history...

Two-Line Element Set

1 62593U 25008G 26123.38760735 .00166587 00000-0 12740-2 0 9992
2 62593 42.9991 156.7439 0000578 138.6811 221.4101 15.70875441 75784
Epoch: May 3, 2026 • Age: 17 hours

Current Status

Altitude 357.6 km
Velocity 7.70 km/s
Sub-Earth Point 38.81°N, 12.83°E
Launch Date Jan 13, 2025
Age 1.3 years
Type internet

Technical Details

Classification Payload
Mass 960.00 kg
Dry Mass 910.00 kg
Total Mass 960.00 kg
Length 0.30 m
Diameter 4.10 m
Span 29.00 m
Shape Box + pan
Manufacturer SPXS
Bus Type Starlink V2MD
Phase Status In Orbit
Owner/State SPXS/US

Most Searched